TimeCST,TemperatureF,Dew PointF,Humidity,Sea Level PressureIn,VisibilityMPH,Wind Direction,Wind SpeedMPH,Gust SpeedMPH,PrecipitationIn,Events,Conditions,WindDirDegrees,DateUTC
12:15 AM,37.4,35.6,93,30.24,6.0,Calm,Calm,-,N/A,,Clear,0,2013-11-03 05:15:00
12:35 AM,37.4,35.6,93,30.24,7.0,Calm,Calm,-,N/A,,Clear,0,2013-11-03 05:35:00
12:55 AM,35.6,35.6,100,30.25,6.0,Calm,Calm,-,N/A,,Clear,0,2013-11-03 05:55:00
1:15 AM,35.6,35.6,100,30.25,6.0,Calm,Calm,-,N/A,,Clear,0,2013-11-03 06:15:00
1:35 AM,35.6,35.6,100,30.25,7.0,Calm,Calm,-,N/A,,Clear,0,2013-11-03 06:35:00
1:55 AM,35.6,35.6,100,30.26,5.0,Calm,Calm,-,N/A,,Clear,0,2013-11-03 06:55:00
1:15 AM,35.6,33.8,93,30.25,5.0,Calm,Calm,-,N/A,,Clear,0,2013-11-03 07:15:00
1:35 AM,35.6,33.8,93,30.26,5.0,Calm,Calm,-,N/A,,Clear,0,2013-11-03 07:35:00
1:55 AM,33.8,33.8,100,30.26,4.0,Calm,Calm,-,N/A,,Clear,0,2013-11-03 07:55:00
2:15 AM,33.8,33.8,100,30.26,5.0,Calm,Calm,-,N/A,,Clear,0,2013-11-03 08:15:00
2:35 AM,33.8,33.8,100,30.26,5.0,Calm,Calm,-,N/A,,Clear,0,2013-11-03 08:35:00
2:55 AM,33.8,33.8,100,30.26,3.0,Calm,Calm,-,N/A,,Clear,0,2013-11-03 08:55:00
3:15 AM,33.8,33.8,100,30.27,4.0,Calm,Calm,-,N/A,,Clear,0,2013-11-03 09:15:00
3:35 AM,33.8,33.8,100,30.26,4.0,Calm,Calm,-,N/A,,Clear,0,2013-11-03 09:35:00
3:55 AM,33.8,32.0,93,30.27,5.0,Calm,Calm,-,N/A,,Clear,0,2013-11-03 09:55:00
4:15 AM,33.8,32.0,93,30.27,4.0,Calm,Calm,-,N/A,,Clear,0,2013-11-03 10:15:00
4:35 AM,32.0,32.0,100,30.27,5.0,Calm,Calm,-,N/A,,Clear,0,2013-11-03 10:35:00
4:55 AM,33.8,32.0,93,30.28,5.0,Calm,Calm,-,N/A,,Clear,0,2013-11-03 10:55:00
5:15 AM,32.0,32.0,100,30.28,1.8,Calm,Calm,-,N/A,,Clear,0,2013-11-03 11:15:00
5:35 AM,32.0,32.0,100,30.28,5.0,Calm,Calm,-,N/A,,Clear,0,2013-11-03 11:35:00
5:55 AM,32.0,32.0,100,30.28,5.0,Calm,Calm,-,N/A,,Clear,0,2013-11-03 11:55:00
6:15 AM,32.0,32.0,100,30.29,5.0,Calm,Calm,-,N/A,,Clear,0,2013-11-03 12:15:00
6:35 AM,32.0,32.0,100,30.29,4.0,Calm,Calm,-,N/A,,Clear,0,2013-11-03 12:35:00
6:55 AM,32.0,32.0,100,30.30,4.0,Calm,Calm,-,N/A,,Clear,0,2013-11-03 12:55:00
7:15 AM,32.0,32.0,100,30.30,5.0,Calm,Calm,-,N/A,,Clear,0,2013-11-03 13:15:00
7:35 AM,33.8,33.8,100,30.31,3.0,Calm,Calm,-,N/A,,Clear,0,2013-11-03 13:35:00
7:55 AM,35.6,33.8,93,30.31,6.0,Calm,Calm,-,N/A,,Clear,0,2013-11-03 13:55:00
8:15 AM,37.4,37.4,100,30.31,7.0,Calm,Calm,-,N/A,,Clear,0,2013-11-03 14:15:00
8:35 AM,39.2,39.2,100,30.32,8.0,Calm,Calm,-,N/A,,Clear,0,2013-11-03 14:35:00
8:55 AM,42.8,39.2,87,30.32,9.0,Calm,Calm,-,N/A,,Clear,0,2013-11-03 14:55:00
9:15 AM,44.6,41.0,87,30.31,9.0,Calm,Calm,-,N/A,,Clear,0,2013-11-03 15:15:00
9:35 AM,48.2,41.0,76,30.31,10.0,Calm,Calm,-,N/A,,Clear,0,2013-11-03 15:35:00
9:55 AM,51.8,41.0,67,30.31,9.0,Calm,Calm,-,N/A,,Clear,0,2013-11-03 15:55:00
10:15 AM,53.6,42.8,67,30.30,10.0,Calm,Calm,-,N/A,,Clear,0,2013-11-03 16:15:00
10:35 AM,55.4,42.8,63,30.30,10.0,SSW,3.5,-,N/A,,Clear,210,2013-11-03 16:35:00
10:55 AM,57.2,39.2,51,30.29,10.0,South,4.6,-,N/A,,Clear,170,2013-11-03 16:55:00
11:15 AM,57.2,39.2,51,30.27,10.0,SE,8.1,-,N/A,,Clear,130,2013-11-03 17:15:00
11:35 AM,59.0,37.4,45,30.26,10.0,Calm,Calm,-,N/A,,Clear,0,2013-11-03 17:35:00
11:55 AM,59.0,39.2,48,30.25,10.0,South,8.1,-,N/A,,Clear,170,2013-11-03 17:55:00
12:15 PM,60.8,39.2,45,30.23,9.0,SE,5.8,-,N/A,,Clear,140,2013-11-03 18:15:00
12:35 PM,60.8,39.2,45,30.21,10.0,SSW,11.5,-,N/A,,Clear,200,2013-11-03 18:35:00
12:55 PM,60.8,37.4,42,30.20,10.0,SE,6.9,-,N/A,,Clear,130,2013-11-03 18:55:00
1:15 PM,62.6,39.2,42,30.19,10.0,ESE,5.8,-,N/A,,Clear,120,2013-11-03 19:15:00
1:35 PM,62.6,39.2,42,30.18,10.0,SSE,5.8,-,N/A,,Clear,150,2013-11-03 19:35:00
1:55 PM,60.8,37.4,42,30.17,10.0,SE,8.1,-,N/A,,Clear,140,2013-11-03 19:55:00
2:15 PM,60.8,37.4,42,30.16,10.0,SE,9.2,-,N/A,,Clear,140,2013-11-03 20:15:00
2:35 PM,60.8,37.4,42,30.16,10.0,SE,6.9,-,N/A,,Clear,140,2013-11-03 20:35:00
2:55 PM,60.8,37.4,42,30.16,10.0,SSE,8.1,-,N/A,,Clear,150,2013-11-03 20:55:00
3:15 PM,62.6,39.2,42,30.16,10.0,SSE,9.2,-,N/A,,Clear,150,2013-11-03 21:15:00
3:35 PM,60.8,39.2,45,30.16,10.0,SSE,9.2,-,N/A,,Clear,150,2013-11-03 21:35:00
3:55 PM,60.8,39.2,45,30.16,10.0,SSE,5.8,-,N/A,,Clear,150,2013-11-03 21:55:00
4:15 PM,60.8,39.2,45,30.16,10.0,SE,6.9,-,N/A,,Clear,140,2013-11-03 22:15:00
4:35 PM,57.2,39.2,51,30.14,10.0,SSE,6.9,-,N/A,,Clear,150,2013-11-03 22:35:00
4:55 PM,57.2,39.2,51,30.14,10.0,SE,4.6,-,N/A,,Clear,140,2013-11-03 22:55:00
5:15 PM,55.4,39.2,54,30.14,10.0,SE,3.5,-,N/A,,Clear,130,2013-11-03 23:15:00
5:35 PM,53.6,39.2,58,30.15,10.0,SE,3.5,-,N/A,,Clear,130,2013-11-03 23:35:00
5:55 PM,51.8,42.8,71,30.17,10.0,Calm,Calm,-,N/A,,Clear,0,2013-11-03 23:55:00
6:15 PM,48.2,42.8,82,30.18,10.0,Calm,Calm,-,N/A,,Clear,0,2013-11-04 00:15:00
6:35 PM,46.4,42.8,87,30.19,10.0,Calm,Calm,-,N/A,,Clear,0,2013-11-04 00:35:00
6:55 PM,46.4,42.8,87,30.18,10.0,Calm,Calm,-,N/A,,Clear,0,2013-11-04 00:55:00
7:15 PM,44.6,41.0,87,30.17,10.0,North,-9999.0,-,N/A,,Clear,0,2013-11-04 01:15:00
7:35 PM,44.6,41.0,87,30.17,10.0,Calm,Calm,-,N/A,,Clear,0,2013-11-04 01:35:00
7:55 PM,44.6,41.0,87,30.17,10.0,Calm,Calm,-,N/A,,Clear,0,2013-11-04 01:55:00
8:15 PM,44.6,42.8,93,30.17,10.0,Calm,Calm,-,N/A,,Clear,0,2013-11-04 02:15:00
8:35 PM,44.6,42.8,93,30.18,10.0,Calm,Calm,-,N/A,,Clear,0,2013-11-04 02:35:00
8:55 PM,44.6,42.8,93,30.20,10.0,Calm,Calm,-,N/A,,Clear,0,2013-11-04 02:55:00
9:15 PM,44.6,42.8,93,30.20,10.0,Calm,Calm,-,N/A,,Clear,0,2013-11-04 03:15:00
9:35 PM,44.6,42.8,93,30.18,10.0,Calm,Calm,-,N/A,,Clear,0,2013-11-04 03:35:00
9:55 PM,44.6,42.8,93,30.17,10.0,Calm,Calm,-,N/A,,Clear,0,2013-11-04 03:55:00
10:15 PM,44.6,42.8,93,30.18,10.0,Calm,Calm,-,N/A,,Clear,0,2013-11-04 04:15:00
10:35 PM,44.6,42.8,93,30.19,10.0,Calm,Calm,-,N/A,,Clear,0,2013-11-04 04:35:00
10:55 PM,44.6,42.8,93,30.19,10.0,Calm,Calm,-,N/A,,Clear,0,2013-11-04 04:55:00